When you browse on this site, cookies collect data to enhance your experience and personalize the content and advertising you see.
Visit our Privacy Policy to learn more. By continuing to use the site, you agree to this use of cookies and data.
  • In Portugal
  • List of Countries
  • For 7 days
  • Water Temperature
  • Satellite Maps
  • Weather Map
  • Weather Widgets
  • user-avatar
    Login

    Hourly Weather Silistra

    Today, 19 April, Friday

    Time Temperature Precipitation Wind Pressure Humidity
    00:00 +8°C° 0 mm 1 mps 765 mmHg 85%
    01:00 +8°C° 0 mm 1 mps 764 mmHg 86%
    02:00 +7°C° 0 mm 1 mps 764 mmHg 87%
    03:00 +7°C° 0 mm 1 mps 764 mmHg 88%
    04:00 +7°C° 0 mm 1 mps 764 mmHg 88%
    05:00 +6°C° 0 mm 1 mps 764 mmHg 89%
    06:00 +7°C° 0 mm 2 mps 763 mmHg 84%
    07:00 +8°C° 0 mm 2 mps 763 mmHg 79%
    08:00 +10°C° 0 mm 3 mps 762 mmHg 76%
    09:00 +11°C° 0.3 mm 3 mps 762 mmHg 73%
    10:00 +12°C° 0.3 mm 3 mps 762 mmHg 70%
    11:00 +12°C° 0.3 mm 3 mps 762 mmHg 67%
    12:00 +13°C° 1 mm 3 mps 762 mmHg 66%
    13:00 +13°C° 1 mm 3 mps 762 mmHg 65%
    14:00 +13°C° 1 mm 3 mps 762 mmHg 64%
    15:00 +13°C° 0.4 mm 3 mps 762 mmHg 65%
    16:00 +13°C° 0.4 mm 4 mps 762 mmHg 66%
    17:00 +12°C° 0.4 mm 4 mps 762 mmHg 67%
    18:00 +11°C° 0.1 mm 3 mps 762 mmHg 73%
    19:00 +9°C° 0.1 mm 3 mps 763 mmHg 80%
    20:00 +8°C° 0.1 mm 2 mps 763 mmHg 86%
    21:00 +7°C° 0 mm 2 mps 763 mmHg 85%
    22:00 +8°C° 0 mm 1 mps 764 mmHg 84%
    23:00 +7°C° 0 mm 1 mps 764 mmHg 83%

    Tomorrow, 20 April, Saturday

    Time Temperature Precipitation Wind Pressure Humidity
    00:00 +7°C° 0 mm 1 mps 764 mmHg 82%
    01:00 +7°C° 0 mm 1 mps 764 mmHg 82%
    02:00 +7°C° 0 mm 1 mps 764 mmHg 81%
    03:00 +6°C° 0.1 mm 1 mps 764 mmHg 84%
    04:00 +6°C° 0.1 mm 1 mps 764 mmHg 87%
    05:00 +5°C° 0.1 mm 2 mps 764 mmHg 91%
    06:00 +5°C° 0.1 mm 3 mps 764 mmHg 85%
    07:00 +6°C° 0.1 mm 4 mps 764 mmHg 79%
    08:00 +7°C° 0.1 mm 5 mps 765 mmHg 74%
    09:00 +9°C° 0.1 mm 5 mps 765 mmHg 65%
    10:00 +10°C° 0.1 mm 6 mps 765 mmHg 56%
    11:00 +11°C° 0.1 mm 6 mps 765 mmHg 46%
    12:00 +13°C° 0 mm 6 mps 765 mmHg 45%
    13:00 +13°C° 0 mm 6 mps 765 mmHg 43%
    14:00 +14°C° 0 mm 6 mps 764 mmHg 41%
    15:00 +13°C° 0 mm 6 mps 764 mmHg 43%
    16:00 +13°C° 0 mm 5 mps 764 mmHg 44%
    17:00 +13°C° 0 mm 5 mps 764 mmHg 46%
    18:00 +12°C° 0 mm 4 mps 764 mmHg 50%
    19:00 +10°C° 0 mm 4 mps 765 mmHg 53%
    20:00 +9°C° 0 mm 3 mps 765 mmHg 57%
    21:00 +8°C° 0 mm 3 mps 765 mmHg 60%
    22:00 +7°C° 0 mm 2 mps 765 mmHg 62%
    23:00 +7°C° 0 mm 2 mps 765 mmHg 64%

    Day after tomorrow, 21 April, Sunday

    Time Temperature Precipitation Wind Pressure Humidity
    00:00 +6°C° 0 mm 2 mps 765 mmHg 66%
    01:00 +6°C° 0 mm 2 mps 764 mmHg 68%
    02:00 +5°C° 0 mm 2 mps 764 mmHg 70%
    03:00 +6°C° 0 mm 1 mps 764 mmHg 70%
    04:00 +6°C° 0 mm 1 mps 764 mmHg 71%
    05:00 +6°C° 0 mm 1 mps 764 mmHg 72%
    06:00 +7°C° 0 mm 1 mps 764 mmHg 67%
    07:00 +9°C° 0 mm 1 mps 764 mmHg 63%
    08:00 +10°C° 0 mm 1 mps 764 mmHg 59%
    09:00 +10°C° 0 mm 2 mps 764 mmHg 54%
    10:00 +13°C° 0 mm 2 mps 764 mmHg 48%
    11:00 +14°C° 0 mm 2 mps 763 mmHg 43%
    12:00 +15°C° 0 mm 2 mps 763 mmHg 43%
    13:00 +15°C° 0 mm 1 mps 763 mmHg 43%
    14:00 +15°C° 0 mm 1 mps 763 mmHg 43%
    15:00 +15°C° 0 mm 1 mps 762 mmHg 44%
    16:00 +15°C° 0 mm 1 mps 762 mmHg 45%
    17:00 +15°C° 0 mm 1 mps 762 mmHg 46%
    18:00 +13°C° 0 mm 2 mps 762 mmHg 52%
    19:00 +12°C° 0 mm 2 mps 763 mmHg 58%
    20:00 +9°C° 0 mm 3 mps 763 mmHg 64%
    21:00 +8°C° 0 mm 3 mps 763 mmHg 65%
    22:00 +7°C° 0 mm 3 mps 763 mmHg 67%
    23:00 +5°C° 0 mm 3 mps 763 mmHg 68%

    22 April, Monday

    Time Temperature Precipitation Wind Pressure Humidity
    00:00 +5°C° 0 mm 3 mps 763 mmHg 67%
    01:00 +6°C° 0 mm 2 mps 763 mmHg 65%
    02:00 +6°C° 0 mm 2 mps 763 mmHg 64%
    03:00 +5°C° 0 mm 2 mps 763 mmHg 64%
    04:00 +5°C° 0 mm 2 mps 763 mmHg 64%
    05:00 +5°C° 0 mm 2 mps 763 mmHg 64%
    06:00 +5°C° 0 mm 3 mps 764 mmHg 62%
    07:00 +8°C° 0 mm 3 mps 764 mmHg 59%
    08:00 +9°C° 0 mm 3 mps 764 mmHg 57%
    09:00 +11°C° 0 mm 4 mps 764 mmHg 51%
    10:00 +12°C° 0 mm 4 mps 764 mmHg 46%
    11:00 +14°C° 0 mm 4 mps 765 mmHg 41%
    12:00 +14°C° 0 mm 4 mps 764 mmHg 41%
    13:00 +15°C° 0 mm 4 mps 764 mmHg 40%
    14:00 +15°C° 0 mm 5 mps 764 mmHg 40%
    15:00 +15°C° 0 mm 5 mps 764 mmHg 42%
    16:00 +14°C° 0 mm 5 mps 763 mmHg 45%
    17:00 +14°C° 0 mm 5 mps 763 mmHg 47%
    18:00 +12°C° 0 mm 5 mps 764 mmHg 52%
    19:00 +10°C° 0 mm 4 mps 764 mmHg 58%
    20:00 +7°C° 0 mm 4 mps 765 mmHg 63%
    21:00 +8°C° 0 mm 3 mps 765 mmHg 68%
    22:00 +7°C° 0 mm 3 mps 765 mmHg 73%
    23:00 +5°C° 0 mm 3 mps 765 mmHg 78%

    23 April, Tuesday

    Time Temperature Precipitation Wind Pressure Humidity
    00:00 +5°C° 0 mm 3 mps 765 mmHg 80%
    01:00 +5°C° 0 mm 2 mps 765 mmHg 82%
    02:00 +5°C° 0 mm 2 mps 765 mmHg 84%
    03:00 +5°C° 0 mm 2 mps 765 mmHg 84%
    04:00 +5°C° 0 mm 2 mps 765 mmHg 84%
    05:00 +5°C° 0 mm 2 mps 765 mmHg 84%
    06:00 +5°C° 0 mm 3 mps 765 mmHg 80%
    07:00 +8°C° 0 mm 3 mps 766 mmHg 75%
    08:00 +8°C° 0 mm 4 mps 766 mmHg 71%
    09:00 +11°C° 0 mm 4 mps 766 mmHg 64%
    10:00 +13°C° 0 mm 5 mps 766 mmHg 56%
    11:00 +15°C° 0 mm 5 mps 766 mmHg 49%
    12:00 +15°C° 0 mm 5 mps 766 mmHg 48%
    13:00 +15°C° 0 mm 5 mps 765 mmHg 48%
    14:00 +16°C° 0 mm 6 mps 765 mmHg 47%
    15:00 +15°C° 0 mm 6 mps 765 mmHg 50%
    16:00 +14°C° 0 mm 6 mps 765 mmHg 52%
    17:00 +14°C° 0 mm 6 mps 764 mmHg 55%
    18:00 +12°C° 0 mm 5 mps 764 mmHg 59%
    19:00 +10°C° 0 mm 5 mps 765 mmHg 63%
    20:00 +10°C° 0 mm 4 mps 765 mmHg 68%
    21:00 +10°C° 0 mm 4 mps 765 mmHg 67%
    22:00 +8°C° 0 mm 4 mps 765 mmHg 67%
    23:00 +8°C° 0 mm 4 mps 765 mmHg 67%

    24 April, Wednesday

    Time Temperature Precipitation Wind Pressure Humidity
    00:00 +8°C° 0 mm 4 mps 765 mmHg 69%
    01:00 +8°C° 0 mm 4 mps 765 mmHg 72%
    02:00 +9°C° 0 mm 3 mps 764 mmHg 74%
    03:00 +9°C° 0 mm 3 mps 764 mmHg 74%
    04:00 +9°C° 0 mm 3 mps 765 mmHg 74%
    05:00 +9°C° 0 mm 3 mps 765 mmHg 75%
    06:00 +10°C° 0 mm 3 mps 765 mmHg 74%
    07:00 +10°C° 0 mm 4 mps 765 mmHg 73%
    08:00 +11°C° 0 mm 4 mps 765 mmHg 72%
    09:00 +12°C° 0 mm 4 mps 765 mmHg 66%
    10:00 +14°C° 0 mm 4 mps 765 mmHg 61%
    11:00 +17°C° 0 mm 4 mps 765 mmHg 55%
    12:00 +17°C° 0 mm 4 mps 765 mmHg 54%
    13:00 +17°C° 0 mm 5 mps 765 mmHg 53%
    14:00 +19°C° 0 mm 5 mps 765 mmHg 52%
    15:00 +17°C° 0 mm 5 mps 764 mmHg 54%
    16:00 +17°C° 0 mm 5 mps 764 mmHg 56%
    17:00 +16°C° 0 mm 5 mps 764 mmHg 58%
    18:00 +14°C° 0 mm 5 mps 765 mmHg 65%
    19:00 +12°C° 0 mm 4 mps 765 mmHg 72%
    20:00 +11°C° 0 mm 4 mps 765 mmHg 80%
    21:00 +10°C° 0 mm 3 mps 765 mmHg 84%
    22:00 +9°C° 0 mm 3 mps 765 mmHg 89%
    23:00 +8°C° 0 mm 3 mps 765 mmHg 93%
    Show more